Lihue, HI

8:17 AM HST on June 23, 2017 (GMT -1000)
Lihue

Weather History for PHLI - September, 2013

Change the Weather History Date:

Thursday, September 26, 2013

  Actual Average Record
Temperature  
Mean Temperature 78 °F 79 °F  
Max Temperature 83 °F 85 °F 90 °F (1993)
Min Temperature 72 °F 74 °F 67 °F (1965)
Degree Days  
Heating Degree Days 0 0  
Month to date heating degree days 0 0  
Since 1 July heating degree days 0 0  
Cooling Degree Days 13 14  
Month to date cooling degree days 397 379  
Year to date cooling degree days 2693 2905  
Growing Degree Days 28 (Base 50)    
Moisture  
Dew Point 71 °F    
Average Humidity 84    
Maximum Humidity 94    
Minimum Humidity 74    
Precipitation  
Precipitation 0.18 in 0.09 in 0.50 in (1997)
Month to date precipitation 1.77 1.77  
Year to date precipitation 18.98 23.22  
Snow  
Snow 0.00 in - - ()
Month to date snowfall 0.0  
Since 1 July snowfall 0.0  
Since 1 September snowfall 0.0  
Snow Depth 0.00 in    
Sea Level Pressure  
Sea Level Pressure 30.00 in    
Wind  
Wind Speed 9 mph (NE)    
Max Wind Speed 22 mph    
Max Gust Speed 24 mph    
Visibility 10 miles    
Events Rain    
T = Trace of Precipitation, MM = Missing Value Source: NWS Daily Summary

Daily Weather History Graph

Daily Weather History Graph

Search for Another Location

Airport or City:

Trip Planner

Search our weather history database for the weather conditions in past years. The results will help you decide how hot, cold, wet, or windy it might be!

Date:

Astronomy

Sep. 26, 2013 Rise Set
Actual Time 6:27 AM HST 6:29 PM HST
Civil Twilight 6:05 AM HST 6:51 PM HST
Nautical Twilight 5:39 AM HST 7:17 PM HST
Astronomical Twilight 5:13 AM HST 7:43 PM HST
Moon No Moon Rise 12:53 PM HST (9/26)
Length of Visible Light 12h 46m
Length of Day
12h 01m
Waning Gibbous, 52% of the Moon is Illuminated
Sep 26
Waning Gibbous
Sep 26
Last Quarter
Oct 4
New
Oct 11
First Quarter
Oct 18
Full

Hourly Weather History & Observations

Time (HST) Temp. Heat Index Dew Point Humidity Pressure Visibility Wind Dir Wind Speed Gust Speed Precip Events Conditions
12:53 AM 78.1 °F - 69.1 °F 74% 30.02 in 10.0 mi NE 13.8 mph - N/A   Scattered Clouds
1:53 AM 77.0 °F - 69.1 °F 76% 30.01 in 10.0 mi NE 11.5 mph - N/A   Clear
2:53 AM 77.0 °F - 69.1 °F 76% 29.99 in 10.0 mi NE 9.2 mph - N/A   Scattered Clouds
3:32 AM 77.0 °F - 66.2 °F 69% 30.00 in 10.0 mi NNE 11.5 mph - N/A   Mostly Cloudy
3:40 AM 77.0 °F - 68.0 °F 74% 29.99 in 10.0 mi NNE 10.4 mph - N/A   Scattered Clouds
3:53 AM 77.0 °F - 69.1 °F 76% 29.98 in 10.0 mi Variable 5.8 mph - N/A   Scattered Clouds
4:53 AM 75.0 °F - 70.0 °F 84% 29.99 in 10.0 mi North 8.1 mph - 0.07 in Rain Light Rain
5:05 AM 73.4 °F - 69.8 °F 88% 29.99 in 10.0 mi Calm Calm - 0.00 in   Overcast
5:38 AM 75.2 °F - 69.8 °F 83% 30.00 in 10.0 mi NNE 11.5 mph - 0.00 in   Scattered Clouds
5:53 AM 73.9 °F - 70.0 °F 87% 29.99 in 10.0 mi NNW 6.9 mph - 0.00 in   Partly Cloudy
6:53 AM 73.0 °F - 70.0 °F 90% 30.01 in 10.0 mi NNW 4.6 mph - N/A   Clear
7:33 AM 75.2 °F - 69.8 °F 83% 30.02 in 10.0 mi North 9.2 mph - N/A   Mostly Cloudy
7:53 AM 77.0 °F - 71.1 °F 82% 30.02 in 10.0 mi North 6.9 mph - N/A   Mostly Cloudy
8:01 AM 78.8 °F - 71.6 °F 78% 30.03 in 10.0 mi NE 5.8 mph - N/A   Mostly Cloudy
8:28 AM 78.8 °F - 69.8 °F 74% 30.03 in 10.0 mi NE 16.1 mph 19.6 mph N/A   Mostly Cloudy
8:41 AM 78.8 °F - 71.6 °F 78% 30.03 in 10.0 mi ENE 17.3 mph - N/A   Mostly Cloudy
8:53 AM 75.9 °F - 71.1 °F 85% 30.03 in 10.0 mi East 15.0 mph - N/A   Mostly Cloudy
9:53 AM 79.0 °F - 71.1 °F 77% 30.03 in 10.0 mi North 11.5 mph - 0.00 in   Overcast
10:53 AM 82.0 °F 87.4 °F 73.0 °F 74% 30.02 in 10.0 mi NE 10.4 mph - N/A   Mostly Cloudy
11:07 AM 82.4 °F 87.2 °F 71.6 °F 70% 30.03 in 10.0 mi ENE 12.7 mph - N/A   Mostly Cloudy
11:53 AM 78.1 °F - 71.1 °F 79% 30.01 in 10.0 mi ESE 10.4 mph - 0.02 in   Overcast
12:46 PM 75.2 °F - 73.4 °F 94% 30.01 in 10.0 mi SE 11.5 mph - 0.01 in   Overcast
12:53 PM 75.0 °F - 72.0 °F 90% 30.00 in 10.0 mi SSE 13.8 mph - 0.01 in Rain Light Rain
1:32 PM 75.2 °F - 73.4 °F 94% 29.99 in 10.0 mi SSW 8.1 mph - 0.00 in   Mostly Cloudy
1:53 PM 77.0 °F - 71.1 °F 82% 29.97 in 10.0 mi South 5.8 mph - 0.00 in   Mostly Cloudy
2:17 PM 75.2 °F - 71.6 °F 89% 29.97 in 10.0 mi SSW 3.5 mph - 0.00 in Rain Light Rain
2:28 PM 75.2 °F - 71.6 °F 89% 29.97 in 1.8 mi South 4.6 mph - 0.03 in Rain Heavy Rain
2:35 PM 75.2 °F - 71.6 °F 89% 29.97 in 3.0 mi Calm Calm - 0.08 in Rain Light Rain
2:53 PM 75.9 °F - 72.0 °F 87% 29.96 in 10.0 mi NNW 4.6 mph - 0.08 in   Overcast
3:00 PM 77.0 °F - 71.6 °F 83% 29.96 in 10.0 mi Calm Calm - N/A   Mostly Cloudy
3:53 PM 77.0 °F - 72.0 °F 84% 29.96 in 10.0 mi Calm Calm - N/A   Scattered Clouds
4:28 PM 78.8 °F - 71.6 °F 78% 29.97 in 10.0 mi Variable 3.5 mph - 0.00 in   Overcast
4:53 PM 75.9 °F - 72.0 °F 87% 29.96 in 10.0 mi North 4.6 mph - 0.01 in Rain Light Rain
5:06 PM 75.2 °F - 73.4 °F 94% 29.97 in 10.0 mi NW 4.6 mph - 0.00 in   Mostly Cloudy
5:53 PM 75.9 °F - 72.0 °F 87% 29.97 in 10.0 mi WNW 4.6 mph - 0.00 in   Overcast
6:53 PM 75.0 °F - 71.1 °F 87% 29.98 in 10.0 mi NW 3.5 mph - N/A   Scattered Clouds
7:51 PM 75.2 °F - 71.6 °F 89% 29.99 in 10.0 mi North 4.6 mph - N/A   Mostly Cloudy
7:53 PM 75.0 °F - 71.1 °F 87% 29.99 in 10.0 mi North 3.5 mph - N/A   Mostly Cloudy
8:30 PM 78.8 °F - 69.8 °F 74% 30.00 in 10.0 mi ENE 13.8 mph - N/A   Mostly Cloudy
8:53 PM 78.1 °F - 70.0 °F 76% 30.00 in 10.0 mi East 12.7 mph - N/A   Scattered Clouds
9:00 PM 78.8 °F - 69.8 °F 74% 30.01 in 10.0 mi East 13.8 mph - N/A   Mostly Cloudy
9:17 PM 78.8 °F - 69.8 °F 74% 30.01 in 10.0 mi East 12.7 mph - N/A   Scattered Clouds
9:53 PM 78.1 °F - 71.1 °F 79% 30.01 in 10.0 mi East 12.7 mph - N/A   Scattered Clouds
10:53 PM 78.1 °F - 70.0 °F 76% 30.01 in 10.0 mi East 15.0 mph - N/A   Scattered Clouds
11:53 PM 78.1 °F - 69.1 °F 74% 30.01 in 10.0 mi East 11.5 mph - N/A   Mostly Cloudy